[TLELIST] Archives

 

[TLELIST] Current TLEs

February 11th 2026 PDT

0 HST 1 20580U 90037B 26041.72948372 .00007929 00000-0 26523-3 0 9997 2 20580 28.4663 223.8541 0001677 163.3807 196.6844 15.29047891769185 0 ISS (ZARYA) 1 25544U 98067A 26042.18139057 .00011529 00000-0 22024-3 0 9999 2 25544 51.6314 203.3958 0011074 86.6860 273.5395 15.48540110552228 0 CXO 1 25867U 99040B 26042.44315465 .00000876 00000-0 00000-0 0 9997 2 25867 54.0699 120.5196 8035794 310.7714 0.4050 0.37798507 16851 ...Continue Reading

[TLELIST] Current TLEs

February 10th 2026 PDT

0 HST 1 20580U 90037B 26040.75045178 .00007715 00000-0 25800-3 0 9991 2 20580 28.4664 230.5298 0001744 153.1588 206.9098 15.29031698769036 0 ISS (ZARYA) 1 25544U 98067A 26041.14883301 .00009718 00000-0 18714-3 0 9990 2 25544 51.6316 208.5012 0011102 83.1842 277.0409 15.48516896552063 0 CXO 1 25867U 99040B 26042.44315465 .00000876 00000-0 00000-0 0 9997 2 25867 54.0699 120.5196 8035794 310.7714 0.4050 0.37798507 16851 ...Continue Reading

[TLELIST] Current TLEs

February 9th 2026 PDT

0 HST 1 20580U 90037B 26039.77140942 .00007499 00000-0 25069-3 0 9992 2 20580 28.4663 237.2056 0001770 143.1754 216.8963 15.29016206768885 0 ISS (ZARYA) 1 25544U 98067A 26040.18079695 .00010658 00000-0 20455-3 0 9996 2 25544 51.6312 213.2864 0011096 78.9890 281.2346 15.48499027551910 0 CXO 1 25867U 99040B 26039.80248350 .00000763 00000-0 00000-0 0 9996 2 25867 54.0420 120.5771 8039148 310.7993 0.8658 0.37804264 16832 ...Continue Reading

[TLELIST] Current TLEs

February 9th 2026 PDT

0 HST 1 20580U 90037B 26039.77140942 .00007499 00000-0 25069-3 0 9992 2 20580 28.4663 237.2056 0001770 143.1754 216.8963 15.29016206768885 0 ISS (ZARYA) 1 25544U 98067A 26040.18079695 .00010658 00000-0 20455-3 0 9996 2 25544 51.6312 213.2864 0011096 78.9890 281.2346 15.48499027551910 0 CXO 1 25867U 99040B 26039.80248350 .00000763 00000-0 00000-0 0 9996 2 25867 54.0420 120.5771 8039148 310.7993 0.8658 0.37804264 16832 ...Continue Reading

[TLELIST] Current TLEs

February 8th 2026 PDT

0 HST 1 20580U 90037B 26038.79235705 .00007968 00000-0 26695-3 0 9992 2 20580 28.4662 243.8802 0001811 133.8603 226.2143 15.29001499768738 0 ISS (ZARYA) 1 25544U 98067A 26039.14821190 .00010933 00000-0 20977-3 0 9990 2 25544 51.6313 218.3910 0011020 76.1997 284.0217 15.48476524551751 0 CXO 1 25867U 99040B 26039.80248350 .00000763 00000-0 00000-0 0 9996 2 25867 54.0420 120.5771 8039148 310.7993 0.8658 0.37804264 16832 ...Continue Reading

[TLELIST] Current TLEs

February 7th 2026 PDT

0 HST 1 20580U 90037B 26037.81329490 .00008603 00000-0 28897-3 0 9992 2 20580 28.4665 250.5538 0001883 124.2340 235.8434 15.28986369768582 0 ISS (ZARYA) 1 25544U 98067A 26037.98653627 .00011965 00000-0 22894-3 0 9994 2 25544 51.6315 224.1327 0011143 71.6186 288.6013 15.48450046551571 0 CXO 1 25867U 99040B 26039.80248350 .00000763 00000-0 00000-0 0 9996 2 25867 54.0420 120.5771 8039148 310.7993 0.8658 0.37804264 16832 ...Continue Reading

[TLELIST] Current TLEs

February 6th 2026 PDT

0 HST 1 20580U 90037B 26036.89949414 .00009561 00000-0 32208-3 0 9998 2 20580 28.4665 256.7833 0001911 115.5134 244.5659 15.28971962768448 0 ISS (ZARYA) 1 25544U 98067A 26037.21207386 .00012979 00000-0 24775-3 0 9993 2 25544 51.6316 227.9611 0011199 69.2605 290.9583 15.48432747551452 0 CXO 1 25867U 99040B 26039.80248350 .00000763 00000-0 00000-0 0 9996 2 25867 54.0420 120.5771 8039148 310.7993 0.8658 0.37804264 16832 ...Continue Reading

[TLELIST] Current TLEs

February 5th 2026 PDT

0 HST 1 20580U 90037B 26036.31204605 .00009602 00000-0 32359-3 0 9994 2 20580 28.4665 260.7880 0001932 109.1408 250.9397 15.28961568768352 0 ISS (ZARYA) 1 25544U 98067A 26036.05036301 .00011388 00000-0 21868-3 0 9994 2 25544 51.6315 233.7051 0011125 65.7526 294.4623 15.48402345551271 0 CXO 1 25867U 99040B 26034.50897227 .00000739 00000-0 00000-0 0 9994 2 25867 54.0018 120.6888 8050674 310.8579 0.1951 0.37804724 16822 ...Continue Reading

[TLELIST] Current TLEs

February 5th 2026 PDT

0 HST 1 20580U 90037B 26036.31204605 .00009602 00000-0 32359-3 0 9994 2 20580 28.4665 260.7880 0001932 109.1408 250.9397 15.28961568768352 0 ISS (ZARYA) 1 25544U 98067A 26036.05036301 .00011388 00000-0 21868-3 0 9994 2 25544 51.6315 233.7051 0011125 65.7526 294.4623 15.48402345551271 0 CXO 1 25867U 99040B 26034.50897227 .00000739 00000-0 00000-0 0 9994 2 25867 54.0018 120.6888 8050674 310.8579 0.1951 0.37804724 16822 ...Continue Reading

[TLELIST] Current TLEs

February 4th 2026 PDT

0 HST 1 20580U 90037B 26035.00659074 .00008870 00000-0 29858-3 0 9999 2 20580 28.4666 269.6866 0002008 97.1098 262.9725 15.28939114768159 0 ISS (ZARYA) 1 25544U 98067A 26035.01771291 .00010297 00000-0 19874-3 0 9995 2 25544 51.6311 238.8105 0011108 61.9619 298.2491 15.48378125551111 0 CXO 1 25867U 99040B 26034.50897227 .00000739 00000-0 00000-0 0 9994 2 25867 54.0018 120.6888 8050674 310.8579 0.1951 0.37804724 16822 ...Continue Reading
  • This mailing list is a public mailing list - anyone may join or leave, at any time.
  • This mailing list is announce-only.

International Space Station (ISS) / Hubble Space Telescope (HST) / Chandra X-Ray Observatory Orbital Data via EMAIL

Privacy Policy:

Private list